FW3968 Weather Reports


time (UTC)temp
F
wind
direction
speed
knots
gust
knots
rain 1hr
in
rain 24hr
in
rain mn
in
humidity
%
barometer
mb
20260502205603 47 184 0.0 0.9 0.00 0.00 0.00 71 1013.4
20260502204605 47 166 0.9 1.7 0.00 0.00 0.00 73 1013.4
20260502203604 47 146 0.9 1.7 0.00 0.00 0.00 76 1013.3
20260502201604 47 191 0.0 1.7 0.00 0.00 0.00 78 1013.6
20260502200603 46 232 1.7 3.5 0.00 0.00 0.00 80 1013.6
20260502195603 46 135 0.0 0.0 0.00 0.00 0.00 80 1013.7
20260502194603 46 171 0.0 0.0 0.00 0.00 0.00 82 1013.9
20260502193604 45 135 0.0 0.0 0.00 0.00 0.00 82 1013.8
20260502191606 45 45 0.0 0.0 0.00 0.00 0.00 81 1013.8
20260502190703 45 45 0.0 0.0 0.00 0.00 0.00 82 1013.8
20260502185705 44 45 0.0 0.9 0.00 0.00 0.00 82 1014.0
20260502183802 44 45 0.0 0.0 0.00 0.00 0.00 79 1014.0
20260502181903 44 137 0.0 0.9 0.00 0.00 0.00 80 1014.2
20260502180904 44 135 0.0 0.0 0.00 0.00 0.00 80 1014.2
20260502170104 46 135 0.0 0.0 0.00 0.00 0.00 75 1014.7
20260502164105 46 172 0.0 1.7 0.00 0.00 0.00 72 1014.8
20260502162205 46 174 0.0 0.9 0.00 0.00 0.00 69 1015.0
20260502161203 46 45 0.0 0.0 0.00 0.00 0.00 70 1015.0
20260502160204 45 337 0.0 0.0 0.00 0.00 0.00 71 1015.2
20260502151402 45 326 1.7 2.6 0.00 0.00 0.00 68 1015.8
20260502150403 45 15 2.6 3.5 0.00 0.00 0.00 67 1015.6
20260502122705 41 22 1.7 2.6 0.00 0.00 0.00 85 1015.2
20260502121704 41 22 0.0 0.0 0.00 0.00 0.00 91 1015.3
20260502120801 39 22 0.0 0.0 0.00 0.00 0.00 92 1015.1
20260502114802 39 43 0.9 0.9 0.00 0.00 0.00 95 1014.8
20260502113804 39 22 0.0 0.0 0.00 0.00 0.00 95 1014.7
20260502112904 39 22 0.0 0.0 0.00 0.00 0.00 96 1014.5
20260502111906 38 22 0.0 0.0 0.00 0.00 0.00 96 1014.5
20260502111002 38 22 0.0 0.0 0.00 0.00 0.00 96 1014.6
20260502105004 36 22 0.0 0.0 0.00 0.00 0.00 95 1014.4
20260502103105 35 180 0.0 0.0 0.00 0.00 0.00 96 1014.1
20260502102119 35 180 0.0 0.0 0.00 0.00 0.00 95 1014.3
20260502101204 34 180 0.0 0.0 0.00 0.00 0.00 95 1014.3
20260502100203 34 135 0.9 0.9 0.00 0.00 0.00 95 1014.3
20260502090305 32 135 1.7 2.6 0.00 0.00 0.00 94 1013.8
20260502070613 34 133 0.0 0.9 0.00 0.00 0.00 92 1013.0
20260502065712 34 45 1.7 2.6 0.00 0.00 0.00 91 1012.8
20260502064731 34 135 0.0 0.0 0.00 0.00 0.00 90 1013.2
20260502063712 34 135 0.0 0.0 0.00 0.00 0.00 90 1013.1
20260502062714 34 135 0.0 0.0 0.00 0.00 0.00 89 1013.1
20260502061813 35 135 0.0 0.0 0.00 0.00 0.00 87 1013.3
20260502055911 34 135 0.9 0.9 0.00 0.00 0.00 86 1013.2
20260502054912 35 112 0.0 0.9 0.00 0.00 0.00 86 1012.9
20260502054011 35 112 0.0 0.0 0.00 0.00 0.00 86 1013.0
20260502053012 35 112 0.0 0.0 0.00 0.00 0.00 85 1013.0
20260502052014 35 112 0.0 0.0 0.00 0.00 0.00 85 1012.9
20260502051013 35 112 0.0 0.9 0.00 0.00 0.00 85 1012.8
20260502050012 35 112 0.0 0.0 0.00 0.00 0.00 83 1012.9
20260502045014 36 112 0.0 0.0 0.00 0.00 0.00 82 1012.5
20260502043013 36 112 0.0 0.0 0.00 0.00 0.00 80 1012.6
20260502042012 36 112 0.0 0.0 0.00 0.00 0.00 79 1012.4
20260502041013 37 112 0.0 0.0 0.00 0.00 0.00 77 1012.4
20260502035124 37 112 0.0 0.0 0.00 0.00 0.00 73 1012.5
20260502034124 38 112 0.0 0.0 0.00 0.00 0.00 73 1012.5
20260502033125 38 112 0.0 0.0 0.00 0.00 0.00 70 1012.5
20260502032125 39 112 0.0 0.0 0.00 0.00 0.00 70 1012.4
20260502031126 40 112 0.0 0.0 0.00 0.00 0.00 67 1012.5
20260502025225 42 337 0.0 0.0 0.00 0.00 0.00 63 1012.5
20260502024226 43 360 0.0 0.0 0.00 0.00 0.00 62 1012.3
20260502023229 43 353 1.7 2.6 0.00 0.00 0.00 61 1012.5
20260502022326 43 12 1.7 3.5 0.00 0.00 0.00 61 1012.5
20260502021327 44 358 1.7 2.6 0.00 0.00 0.00 60 1012.5
20260502020425 44 11 2.6 3.5 0.00 0.00 0.00 59 1012.5
20260502015428 44 329 3.5 5.2 0.00 0.00 0.00 59 1012.5
20260502014523 45 333 1.7 2.6 0.00 0.00 0.00 58 1012.5
20260502010526 46 340 5.2 7.8 0.00 0.00 0.00 56 1012.0
20260502005625 47 341 4.3 7.0 0.00 0.00 0.00 56 1011.9
20260502004626 47 357 4.3 7.0 0.00 0.00 0.00 54 1011.6
20260502002626 48 353 6.1 11.3 0.00 0.00 0.00 53 1011.1
20260502001624 49 341 2.6 5.2 0.00 0.00 0.00 53 1010.7
20260502000624 49 355 4.3 7.0 0.00 0.00 0.00 52 1010.5
20260501235624 49 2 4.3 8.7 0.00 0.00 0.00 51 1010.4
20260501234625 50 6 2.6 4.3 0.00 0.00 0.00 51 1010.0
20260501233627 50 346 3.5 5.2 0.00 0.00 0.00 49 1009.9
20260501232723 51 353 4.3 7.8 0.00 0.00 0.00 49 1009.6
20260501231726 51 360 5.2 7.8 0.00 0.00 0.00 50 1009.4
20260501230726 52 357 5.2 7.8 0.00 0.00 0.00 50 1009.2
20260501225824 52 348 3.5 5.2 0.00 0.00 0.00 50 1009.1
20260501224826 53 353 7.0 13.0 0.00 0.00 0.00 50 1009.0
20260501223827 53 340 4.3 8.7 0.00 0.00 0.00 48 1008.8
20260501222923 54 345 7.0 9.6 0.00 0.00 0.00 49 1008.6
20260501220924 55 348 6.1 9.6 0.00 0.00 0.00 47 1008.3
20260501215940 55 3 6.1 11.3 0.00 0.00 0.00 49 1008.2
20260501215026 56 355 2.6 3.5 0.00 0.00 0.00 48 1008.1
20260501214026 56 337 4.3 7.8 0.00 0.00 0.00 48 1008.0
20260501213025 56 341 4.3 6.1 0.00 0.00 0.00 46 1008.0
20260501212123 57 341 2.6 5.2 0.00 0.00 0.00 48 1007.9
20260501211125 57 336 6.1 10.4 0.00 0.00 0.00 46 1007.8